Location: Grums
(59.3529°N, 13.1129°E)
Time: 14:39:18
(UTC+02:00)

Nauka - Pass Details

Date: 25 September 2021
Orbit: 417 x 423 km, 51.6° (Epoch: 20 October)

Event Time Altitude Azimuth Distance (km) Brightness Sun altitude
Rises 20:10:51 0° 245° (WSW) 2,363 ? -10.0°
Reaches altitude 10° 20:13:14 10° 230° (SW) 1,500 ? -10.3°
Maximum altitude 20:15:54 22° 177° (S) 971 ? -10.7°
Enters shadow 20:17:47 14° 134° (SE) 1,263 ? -10.9°
